Weather History for Camarillo, CA

Change the Weather History Date:

Thursday, February 28, 2013

  Actual Average Record
Temperature  
Mean Temperature 61 °F 54 °F  
Max Temperature 80 °F 65 °F 83 °F (1992)
Min Temperature 41 °F 44 °F 31 °F (1962)
Degree Days  
Heating Degree Days 4 11  
Month to date heating degree days 294 318  
Since 1 July heating degree days 1140 1336  
Cooling Degree Days 0 0  
Month to date cooling degree days 0 2  
Year to date cooling degree days 20 9  
Growing Degree Days 11 (Base 50)    
Moisture  
Dew Point 27 °F    
Average Humidity 33    
Maximum Humidity 57    
Minimum Humidity 9    
Precipitation  
Precipitation 0.00 in 0.11 in 2.55 in (1957)
Month to date precipitation 0.13 3.71  
Year to date precipitation 1.20 7.18  
Since 1 July precipitation 3.91 11.42  
Sea Level Pressure  
Sea Level Pressure 30.31 in    
Wind  
Wind Speed 6 mph (NNE)    
Max Wind Speed 18 mph    
Max Gust Speed 22 mph    
Visibility 10 miles    
Events      
T = Trace of Precipitation, MM = Missing Value Source: NWS Daily Summary

Daily Weather History Graph

Daily Weather History Graph

Search for Another Location

Airport:

Trip Planner

Search our weather history database for the weather conditions in past years. The results will help you decide how hot, cold, wet, or windy it might be!

Date:

Astronomy

Feb. 28, 2013 Rise Set
Actual Time 6:26 AM PST 5:52 PM PST
Civil Twilight 6:00 AM PST 6:17 PM PST
Nautical Twilight 5:31 AM PST 6:46 PM PST
Astronomical Twilight 5:02 AM PST 7:15 PM PST
Moon 9:12 PM PST (2/28) 7:49 AM PST (2/28)
Length of Visible Light 12h 16m
Length of Day
11h 26m
Waning Gibbous, 90% of the Moon is Illuminated
Feb 28
Waning Gibbous
Mar 4
Last Quarter
Mar 11
New
Mar 19
First Quarter
Mar 27
Full

Hourly Weather History & Observations

Time (PST) Temp. Windchill Dew Point Humidity Pressure Visibility Wind Dir Wind Speed Gust Speed Precip Events Conditions
12:55 AM 46.9 °F - 25.0 °F 42% 30.32 in 10.0 mi Calm Calm - N/A   Clear
1:55 AM 46.9 °F - 24.1 °F 41% 30.31 in 10.0 mi NNE 4.6 mph - N/A   Clear
2:55 AM 43.0 °F - 28.0 °F 56% 30.30 in 10.0 mi Calm Calm - N/A   Clear
3:55 AM 43.0 °F 40.3 °F 26.1 °F 51% 30.30 in 10.0 mi NE 4.6 mph - N/A   Clear
4:55 AM 46.9 °F - 24.1 °F 41% 30.30 in 10.0 mi NE 3.5 mph - N/A   Clear
5:55 AM 43.0 °F - 25.0 °F 49% 30.32 in 10.0 mi Calm Calm - N/A   Clear
6:55 AM 45.0 °F - 26.1 °F 48% 30.33 in 10.0 mi Calm Calm - N/A   Clear
7:55 AM 63.0 °F - 18.0 °F 18% 30.34 in 10.0 mi ENE 6.9 mph - N/A   Clear
8:55 AM 66.0 °F - 28.0 °F 24% 30.35 in 10.0 mi WNW 3.5 mph - N/A   Clear
9:55 AM 75.9 °F - 21.0 °F 13% 30.35 in 10.0 mi North 10.4 mph - N/A   Clear
10:55 AM 79.0 °F - 15.1 °F 9% 30.33 in 10.0 mi ENE 6.9 mph - N/A   Clear
11:55 AM 79.0 °F - 24.1 °F 13% 30.31 in 10.0 mi West 12.7 mph - N/A   Clear
12:55 PM 77.0 °F - 23.0 °F 13% 30.29 in 10.0 mi West 18.4 mph - N/A   Clear
1:55 PM 78.1 °F - 19.9 °F 11% 30.27 in 10.0 mi West 16.1 mph - N/A   Clear
2:55 PM 77.0 °F - 19.9 °F 12% 30.27 in 10.0 mi West 13.8 mph - N/A   Clear
5:55 PM 62.1 °F - 43.0 °F 50% 30.31 in 10.0 mi SSE 3.5 mph - N/A   Clear
7:55 PM 60.1 °F - 41.0 °F 49% 30.32 in 10.0 mi Calm Calm - N/A   Clear
8:55 PM 57.9 °F - 36.0 °F 44% 30.33 in 10.0 mi ENE 4.6 mph - N/A   Clear
9:55 PM 57.0 °F - 35.1 °F 44% 30.33 in 10.0 mi NE 6.9 mph - N/A   Clear
11:55 PM 54.0 °F - 30.0 °F 40% 30.32 in 10.0 mi NNE 3.5 mph - N/A   Clear